Wind_Speed
12 12 13 13 13 13 13 13 13 13 13 14 13 12 11 12 12 12 12 13 12 11 11 11 11 11 11 11 12 12 12 12 12 12 13 13 13 13 13 12 12 12 13 13
12 13 13 14 14 13 13 14 14 14 14 14 14 14 13 13 13 12 13 13 13 13 12 12 12 12 12 13 13 13 12 13 13 13 13 13 13 13 13 13 13 13 13 13
13 13 13 13 14 14 14 14 14 15 15 15 15 15 15 14 14 13 14 14 14 13 13 13 14 14 14 15 14 14 14 14 14 14 14 13 14 14 14 15 15 14 14 14
13 13 13 14 14 14 14 14 15 15 15 15 16 15 14 15 15 15 15 15 15 15 15 15 15 15 15 15 15 15 15 16 16 16 15 15 15 16 16 16 15 15 14 15
13 13 14 14 14 14 14 14 15 16 17 17 16 17 14 15 16 16 17 17 16 16 16 16 17 17 17 17 17 17 17 18 18 18 17 17 17 17 17 17 17 16 16 16
13 13 13 13 14 15 15 16 16 17 18 17 16 17 15 14 15 17 18 17 17 17 17 18 18 18 19 19 19 19 19 19 19 19 19 19 19 19 19 19 18 18 18 18
14 13 13 14 14 15 16 16 17 17 18 18 16 17 16 15 15 16 17 18 18 18 18 19 19 20 20 20 20 20 20 20 20 20 20 20 20 20 20 20 20 19 19 19
15 14 14 14 15 16 16 17 18 19 18 18 17 17 17 16 16 16 17 18 18 19 19 20 20 21 21 21 21 21 21 21 21 22 22 22 22 22 21 22 21 21 21 20
16 15 15 16 16 16 16 17 18 19 19 19 18 17 17 18 18 18 18 18 19 20 20 20 21 21 21 21 21 21 22 22 23 23 24 24 24 23 23 22 23 23 23 22
17 17 16 16 17 17 17 17 18 19 20 20 20 18 18 18 19 19 19 18 19 20 20 20 21 21 21 21 21 22 23 23 24 24 24 24 24 24 24 24 24 25 25 24
18 18 18 18 18 18 18 19 19 20 21 21 22 20 19 19 19 19 19 20 20 21 21 20 21 21 21 21 22 23 23 24 25 26 26 26 26 26 26 25 26 26 27 26
19 19 19 19 19 19 19 19 20 22 22 22 23 23 22 21 21 20 20 21 21 21 22 21 21 22 22 23 23 24 24 25 26 26 27 27 27 28 28 27 27 27 28 28
20 21 21 21 21 20 20 21 22 23 23 23 23 22 22 22 22 21 21 21 21 22 23 23 23 23 24 24 24 24 25 26 26 27 27 27 28 28 28 28 28 29 29 29
21 22 22 22 21 22 22 22 22 23 24 24 24 23 23 23 23 23 22 22 22 23 23 24 24 24 24 25 25 25 26 26 26 27 28 28 29 29 29 29 30 30 30 31
22 22 22 22 22 23 23 23 23 24 25 25 24 24 24 24 24 24 23 23 23 23 24 25 25 25 25 26 26 26 26 27 27 27 28 28 29 29 30 30 30 30 31 31
23 23 23 23 23 24 24 24 24 24 25 25 25 24 24 26 26 25 25 24 23 23 24 25 26 26 26 26 27 27 27 27 27 28 28 29 29 29 29 29 30 30 31 31
24 24 24 23 24 25 24 23 24 25 25 26 25 25 25 25 26 26 25 25 24 24 25 26 26 27 27 27 27 27 28 28 28 28 29 29 29 29 29 29 29 30 30 31
25 24 24 25 25 25 24 24 24 25 25 26 26 26 26 26 26 26 25 25 25 25 25 25 26 27 27 27 28 28 28 29 29 30 29 29 29 29 29 29 29 30 30 30
25 25 26 26 26 25 24 24 24 24 24 25 25 26 26 26 26 26 26 26 26 27 26 26 26 26 26 26 27 28 29 30 30 29 30 30 30 29 29 30 30 30 30 30
25 25 26 26 26 25 24 24 24 24 23 23 25 26 26 26 26 26 26 27 27 27 27 27 27 26 26 26 28 29 29 30 30 30 30 30 31 30 30 31 31 32 32 32
25 25 26 26 26 25 24 24 24 25 24 24 25 26 26 25 25 25 26 27 27 27 27 26 27 28 28 29 29 29 30 30 31 31 31 31 31 31 30 31 31 31 31 31
24 25 26 26 26 24 24 24 24 25 25 25 26 26 26 25 26 26 27 27 27 27 26 27 28 29 30 31 30 30 29 29 30 31 31 31 30 30 30 30 30 30 31 31
24 25 26 26 26 25 25 25 25 25 25 26 25 26 26 26 26 26 27 28 28 27 27 27 27 28 29 31 31 31 31 30 30 29 29 29 29 30 30 30 30 30 30 30
26 26 27 27 26 26 26 26 26 26 26 26 26 26 26 26 26 26 26 27 28 28 27 27 27 28 29 30 30 31 30 30 29 29 29 29 29 29 28 29 29 29 28 28
26 26 27 27 27 27 27 27 27 27 27 27 26 26 25 25 25 26 26 27 28 28 28 26 26 26 27 28 29 29 29 28 28 29 29 29 28 27 27 27 27 27 27 27
26 27 28 28 28 28 28 28 28 28 27 27 26 26 25 25 25 25 26 27 27 27 27 27 27 27 27 26 26 27 27 28 28 28 27 27 26 26 25 25 26 26 26 26
Wind_Direction
267 267 268 269 269 265 266 265 265 265 265 264 265 268 269 272 272 269 266 266 266 268 269 269 271 274 277 280 282 282 283 283 282 281 279 278 277 276 276 278 277 278 278 280
268 268 269 270 270 269 265 266 264 264 267 269 271 272 270 271 272 270 265 265 268 268 270 271 271 274 274 277 278 280 281 285 286 285 282 280 279 279 278 277 275 276 277 280
272 272 271 269 270 271 268 267 266 267 268 270 271 273 272 269 269 268 265 264 266 267 268 270 271 273 276 278 279 280 280 282 284 285 283 280 280 279 278 278 275 274 277 279
271 273 272 272 273 274 270 268 267 267 267 269 272 275 273 270 268 268 267 264 264 266 267 267 269 272 274 277 278 278 278 279 281 283 282 278 278 278 278 276 275 274 275 277
274 275 274 273 273 273 271 269 268 267 267 268 270 275 275 273 271 269 267 265 266 267 267 268 271 272 273 274 276 277 277 278 278 278 279 280 278 277 277 276 274 275 276 276
272 275 275 274 272 273 274 273 271 270 268 269 271 274 275 274 272 268 265 264 266 267 267 270 271 272 274 273 273 274 275 277 277 278 279 280 279 277 277 275 273 274 276 277
273 275 275 275 273 274 274 274 274 273 271 273 273 274 276 275 273 269 266 265 265 265 266 269 271 272 274 274 273 273 274 275 276 277 278 278 278 278 277 275 274 273 274 275
276 276 275 276 276 276 275 276 276 278 277 275 274 276 279 279 277 274 270 268 270 271 270 270 272 274 274 272 272 272 272 272 272 274 275 276 278 279 278 277 276 274 274 275
276 277 275 276 276 276 277 276 278 278 279 278 277 278 280 278 278 277 274 272 271 272 271 272 273 275 275 273 272 273 274 272 271 272 273 274 275 277 278 279 277 274 273 273
274 277 277 276 276 277 276 277 277 277 280 280 279 280 282 282 280 278 276 272 270 273 275 275 275 276 277 275 273 274 276 276 275 274 274 274 274 276 276 277 276 274 272 272
273 275 277 277 278 277 274 275 276 277 279 281 280 279 282 284 284 280 278 274 270 271 274 275 277 278 278 277 277 278 278 278 277 277 276 276 276 276 275 274 275 274 273 271
272 274 276 277 278 277 276 276 276 276 278 279 280 282 280 281 282 281 276 273 272 271 273 275 276 277 278 280 278 278 279 279 279 278 278 277 276 276 275 274 274 274 272 271
273 275 277 276 277 278 279 279 278 278 277 278 279 282 281 279 279 279 276 273 273 273 273 274 275 277 280 281 281 279 279 279 279 278 279 278 277 276 276 275 273 273 272 271
275 276 277 278 278 276 277 277 279 279 278 278 279 279 280 280 278 279 277 275 274 273 274 275 276 278 281 282 282 281 281 282 282 282 281 280 279 278 277 275 274 272 271 271
275 277 276 277 277 276 276 278 278 279 280 280 280 278 277 278 280 279 277 276 272 271 274 276 278 279 281 282 283 283 283 283 284 284 283 282 281 279 278 277 275 274 273 272
275 276 276 276 278 278 277 278 279 280 280 279 279 278 278 277 279 280 276 277 276 273 274 277 278 280 281 282 283 284 285 285 285 284 284 284 283 281 279 278 277 275 275 272
276 277 276 276 277 278 278 280 280 279 279 278 277 277 276 276 277 278 277 276 278 276 275 277 279 280 281 282 283 284 286 287 286 286 285 285 284 282 281 279 278 277 276 275
277 275 275 277 278 279 282 282 281 280 279 280 278 277 277 277 277 278 278 277 279 278 278 279 280 280 279 280 283 284 286 287 287 286 285 285 283 281 280 279 278 277 277 276
275 276 276 277 278 279 281 283 284 283 281 281 279 278 278 278 277 278 279 278 280 280 280 280 281 282 281 282 282 283 286 287 288 288 285 283 282 280 279 279 278 278 277 276
276 275 277 278 278 280 282 283 283 284 283 281 279 278 278 278 277 278 280 280 280 281 281 281 282 283 283 284 283 284 285 287 288 287 286 284 282 279 279 279 279 278 277 276
276 274 275 277 279 280 283 284 284 284 284 281 281 280 279 279 278 279 280 281 281 282 282 283 283 283 285 285 285 286 287 287 287 287 287 285 283 280 279 279 279 280 279 278
276 275 275 276 278 281 283 284 283 282 281 281 282 280 279 279 279 279 281 281 283 283 284 284 284 284 285 287 287 287 288 289 288 287 287 285 282 281 280 281 282 281 280 280
275 276 275 275 277 279 282 283 284 282 281 280 281 280 279 279 280 280 281 282 283 285 284 285 286 286 286 287 287 289 289 290 288 287 287 286 283 281 282 283 283 283 282 281
275 275 275 275 276 277 279 282 284 283 282 281 280 280 280 280 279 280 282 282 283 285 284 285 287 287 287 288 288 289 290 290 288 288 289 287 285 284 284 283 284 283 284 283
275 276 276 276 277 277 278 280 282 282 283 282 282 282 282 281 280 280 282 284 285 285 286 285 287 288 287 287 289 290 290 289 290 290 290 288 288 285 284 284 284 284 284 284
276 276 277 277 278 278 279 280 281 281 282 282 283 283 282 283 282 282 283 285 286 287 287 287 288 289 289 289 290 289 290 288 289 290 289 287 285 285 285 287 287 286 286 285
Height
5842 5842 5842 5842 5842 5843 5843 5843 5844 5844 5844 5844 5844 5845 5845 5845 5845 5845 5845 5845 5845 5845 5845 5845 5845 5845 5844 5844 5843 5843 5842 5842 5841 5841 5840 5840 5839 5839 5838 5837 5837 5837 5836 5835
5839 5839 5839 5839 5839 5839 5839 5840 5840 5841 5840 5840 5841 5841 5841 5841 5841 5842 5842 5842 5842 5842 5842 5842 5842 5841 5841 5841 5840 5840 5839 5839 5838 5837 5837 5836 5836 5835 5835 5834 5834 5833 5833 5832
5835 5836 5835 5836 5836 5836 5836 5836 5836 5837 5836 5836 5837 5838 5838 5838 5837 5838 5838 5838 5838 5838 5838 5838 5838 5838 5837 5837 5837 5836 5836 5835 5835 5834 5833 5833 5832 5832 5831 5831 5831 5830 5830 5829
5832 5832 5832 5832 5832 5832 5832 5832 5832 5832 5832 5832 5833 5833 5834 5833 5833 5833 5834 5834 5834 5834 5834 5834 5834 5833 5833 5833 5832 5832 5832 5831 5831 5830 5830 5829 5829 5828 5828 5827 5827 5826 5826 5826
5829 5829 5829 5829 5828 5828 5828 5828 5828 5828 5828 5828 5828 5828 5829 5828 5828 5829 5829 5829 5829 5830 5830 5829 5829 5829 5828 5828 5828 5827 5827 5827 5826 5825 5825 5825 5824 5824 5823 5823 5822 5822 5822 5821
5826 5826 5825 5825 5825 5825 5824 5824 5824 5823 5823 5824 5825 5824 5824 5825 5824 5824 5824 5824 5825 5825 5825 5824 5824 5824 5823 5823 5823 5822 5822 5822 5821 5821 5820 5820 5819 5819 5818 5818 5818 5817 5817 5817
5823 5823 5822 5822 5821 5821 5821 5821 5820 5819 5819 5820 5820 5819 5821 5821 5820 5820 5820 5820 5820 5820 5820 5819 5819 5818 5818 5817 5817 5817 5817 5816 5816 5815 5815 5815 5814 5814 5813 5813 5812 5812 5812 5812
5819 5819 5819 5818 5818 5817 5817 5817 5817 5816 5815 5815 5815 5815 5817 5816 5815 5815 5815 5815 5815 5815 5814 5814 5813 5813 5812 5812 5811 5811 5811 5811 5810 5810 5809 5809 5809 5808 5808 5807 5806 5806 5806 5806
5814 5815 5815 5814 5814 5814 5813 5813 5813 5812 5810 5810 5811 5812 5812 5811 5811 5810 5810 5810 5809 5809 5809 5808 5808 5807 5806 5806 5805 5805 5805 5804 5804 5803 5803 5803 5802 5802 5801 5801 5800 5800 5800 5799
5810 5810 5811 5811 5810 5810 5810 5809 5808 5807 5806 5805 5806 5807 5807 5806 5806 5805 5805 5805 5804 5804 5803 5802 5802 5801 5800 5800 5799 5798 5798 5798 5797 5797 5796 5795 5795 5795 5795 5794 5794 5793 5793 5793
5806 5806 5806 5806 5806 5805 5805 5805 5803 5802 5802 5801 5801 5804 5802 5801 5800 5800 5799 5799 5799 5798 5798 5797 5796 5795 5794 5793 5793 5792 5791 5791 5790 5789 5788 5788 5788 5787 5787 5787 5787 5786 5786 5785
5801 5801 5801 5801 5801 5800 5800 5800 5799 5798 5797 5796 5796 5799 5796 5795 5794 5793 5793 5793 5792 5792 5792 5791 5790 5790 5788 5787 5786 5785 5784 5784 5783 5782 5781 5780 5780 5779 5779 5779 5779 5778 5778 5778
5796 5796 5795 5795 5797 5796 5794 5794 5793 5792 5791 5791 5790 5793 5790 5789 5788 5787 5787 5787 5786 5786 5786 5785 5784 5783 5782 5781 5780 5779 5777 5776 5775 5774 5773 5772 5772 5771 5771 5770 5770 5770 5770 5769
5790 5790 5790 5790 5789 5788 5788 5788 5787 5786 5785 5785 5785 5785 5784 5783 5782 5781 5781 5780 5780 5780 5779 5778 5777 5776 5775 5774 5773 5772 5770 5768 5767 5766 5765 5764 5763 5762 5762 5761 5761 5761 5761 5760
5784 5784 5783 5783 5783 5782 5781 5781 5781 5780 5779 5778 5779 5778 5778 5777 5775 5775 5774 5774 5773 5773 5772 5771 5771 5769 5768 5767 5765 5764 5762 5760 5759 5758 5756 5755 5754 5753 5752 5751 5751 5751 5751 5750
5777 5777 5777 5777 5776 5775 5775 5775 5774 5773 5772 5772 5771 5772 5771 5770 5769 5768 5768 5767 5766 5765 5765 5764 5763 5762 5761 5759 5758 5756 5754 5752 5751 5749 5748 5746 5745 5744 5743 5742 5741 5741 5740 5740
5771 5771 5770 5771 5770 5768 5769 5770 5768 5767 5766 5765 5765 5765 5764 5763 5762 5761 5760 5760 5759 5758 5757 5756 5755 5754 5753 5751 5750 5748 5746 5745 5743 5741 5739 5737 5736 5735 5733 5732 5731 5731 5730 5730
5765 5764 5763 5763 5764 5762 5766 5763 5761 5760 5759 5758 5758 5757 5756 5756 5755 5754 5753 5752 5752 5751 5749 5749 5748 5746 5745 5743 5742 5740 5738 5737 5735 5733 5730 5729 5727 5726 5724 5723 5722 5721 5721 5720
5758 5758 5757 5756 5755 5756 5757 5756 5754 5753 5753 5751 5750 5750 5749 5748 5748 5747 5746 5745 5744 5743 5742 5741 5740 5738 5737 5735 5734 5732 5730 5728 5726 5724 5722 5720 5718 5717 5716 5714 5713 5712 5711 5710
5751 5751 5751 5749 5748 5749 5751 5749 5747 5747 5746 5745 5743 5742 5741 5741 5741 5741 5739 5737 5737 5735 5734 5733 5732 5730 5729 5727 5725 5724 5722 5719 5717 5715 5713 5711 5709 5708 5707 5705 5704 5702 5702 5701
5744 5744 5744 5743 5742 5742 5743 5741 5741 5741 5740 5738 5736 5735 5734 5733 5733 5733 5731 5730 5729 5728 5727 5725 5724 5722 5721 5719 5717 5715 5713 5710 5708 5706 5704 5702 5700 5698 5697 5696 5694 5693 5692 5691
5738 5737 5737 5736 5736 5738 5735 5734 5734 5733 5731 5730 5728 5727 5727 5726 5725 5724 5723 5722 5721 5720 5719 5717 5716 5714 5712 5710 5708 5706 5704 5702 5699 5697 5695 5692 5691 5689 5688 5687 5685 5684 5683 5682
5731 5731 5730 5730 5731 5730 5728 5726 5725 5724 5723 5722 5721 5720 5719 5718 5718 5717 5716 5715 5714 5712 5711 5709 5708 5706 5704 5701 5699 5697 5695 5692 5690 5688 5686 5683 5682 5680 5679 5677 5676 5675 5673 5672
5725 5724 5723 5723 5723 5722 5720 5719 5718 5717 5715 5714 5714 5713 5712 5711 5710 5709 5708 5707 5706 5704 5703 5701 5700 5698 5695 5693 5691 5689 5686 5684 5681 5679 5677 5675 5673 5671 5670 5669 5667 5666 5665 5664
5718 5716 5715 5715 5715 5714 5713 5711 5710 5709 5708 5707 5706 5705 5704 5703 5703 5702 5701 5699 5698 5696 5694 5693 5691 5689 5687 5684 5682 5680 5678 5675 5673 5671 5669 5666 5664 5663 5662 5660 5659 5658 5657 5656
5710 5709 5708 5708 5707 5706 5706 5704 5703 5702 5701 5700 5699 5698 5697 5696 5695 5694 5692 5691 5689 5688 5686 5684 5683 5681 5678 5676 5674 5672 5669 5667 5665 5663 5660 5658 5657 5655 5654 5652 5651 5650 5649 5648